Theta_e
299 300 299 299 300 300 300 300 300 301 301 302 302 303 303 304 304 305 305 307 308 311 312 313 313 314 316 317 318 318 316 315 311 313 315 316 316 315 316 314 315 317 316
297 297 297 297 297 297 297 298 299 299 300 300 301 301 302 302 302 301 301 301 301 301 302 303 305 307 308 313 315 315 315 314 313 310 313 313 314 315 316 316 315 313 315
294 294 293 292 293 293 294 295 296 296 296 297 298 298 298 299 299 298 297 296 296 297 298 298 299 300 299 302 302 302 304 308 313 311 310 312 313 314 313 314 314 315 312
291 291 290 289 289 290 291 292 292 293 293 294 294 295 296 296 297 294 294 293 294 295 297 297 297 297 297 295 296 297 299 301 303 304 306 308 310 309 305 306 306 301 309
288 287 286 287 287 287 287 288 289 290 291 291 291 292 293 293 294 291 291 291 292 293 295 296 297 294 290 293 296 297 297 296 296 297 297 299 301 302 295 300 300 306 305
284 283 283 283 283 283 284 284 286 287 288 288 288 289 289 291 292 292 290 289 290 291 291 294 295 291 293 293 294 294 294 293 293 294 294 294 295 298 300 300 301 300 297
280 280 279 279 279 280 281 282 282 283 285 285 286 287 286 287 291 291 290 288 288 289 290 291 291 292 291 292 292 292 292 293 294 293 291 293 294 297 298 297 297 298 299
276 276 276 276 276 278 278 279 279 280 280 281 283 285 285 286 290 291 289 288 287 288 289 289 289 289 289 288 290 288 288 289 291 292 292 293 294 295 295 295 294 294 295
273 273 274 274 275 275 276 277 278 277 277 279 280 281 282 284 287 288 288 286 285 285 286 287 288 287 288 290 287 284 284 285 290 292 292 293 293 294 294 292 289 289 289
271 272 273 273 273 273 274 275 276 277 277 278 279 280 281 282 285 287 286 284 281 281 282 284 285 284 288 289 285 283 281 282 284 286 288 290 291 291 292 292 291 288 289
270 271 271 272 272 274 274 274 275 275 276 277 278 280 280 280 282 284 285 283 280 280 281 281 281 285 285 285 286 283 283 285 285 286 287 287 288 288 289 288 288 287 287
269 269 270 271 272 272 272 273 273 274 274 275 276 275 277 278 279 281 282 281 282 279 279 279 279 282 283 284 283 284 285 286 285 284 285 286 287 288 289 286 285 284 286
267 267 268 270 270 270 270 270 271 272 272 272 272 271 273 275 275 278 278 279 279 278 278 278 280 281 281 281 281 283 282 282 284 282 284 285 287 288 286 284 283 283 282
264 265 266 266 266 268 268 270 269 270 270 270 270 270 270 272 272 274 275 275 276 277 277 276 278 279 279 279 278 280 282 283 283 283 284 285 287 286 284 281 282 282 281
263 264 264 265 265 265 267 267 268 270 270 269 270 270 269 269 271 275 275 274 274 275 275 274 273 273 273 274 275 277 280 282 281 283 282 283 283 285 285 283 282 281 280
261 262 263 263 263 265 265 265 269 270 271 271 272 271 271 273 274 274 275 276 276 276 272 271 270 270 270 272 274 275 277 277 279 281 281 281 282 283 284 285 281 281 281
260 261 261 261 262 262 262 262 261 264 268 269 270 270 271 271 272 273 273 274 274 274 268 268 267 268 269 271 272 272 272 275 276 277 279 280 281 283 284 284 283 281 280
258 259 259 260 260 260 261 260 260 260 260 261 265 267 269 270 270 271 271 271 265 266 265 265 265 266 267 268 268 269 269 271 271 273 274 277 280 281 281 282 283 281 281
256 257 259 259 259 259 259 259 259 259 259 259 260 262 264 266 267 268 269 263 261 262 263 263 264 265 265 266 266 267 267 267 268 270 271 272 274 278 280 282 282 283 281
255 256 258 257 258 258 258 258 258 258 258 258 258 258 259 260 260 262 263 262 261 261 262 262 262 263 263 263 264 264 265 266 266 267 268 270 272 277 280 281 282 281 282
254 255 256 257 257 257 257 257 257 257 257 257 257 259 265 263 261 261 260 260 260 260 260 260 261 261 261 262 262 262 263 263 264 265 266 268 269 269 272 275 282 282 281
253 255 255 255 256 256 256 257 257 257 257 257 258 259 265 260 259 259 259 260 260 261 261 261 260 260 261 261 261 261 261 261 262 263 264 265 266 268 269 272 273 282 282
254 254 254 254 255 256 256 256 257 257 257 257 258 258 258 258 258 259 259 260 260 260 261 261 260 260 260 261 261 261 260 260 261 263 263 264 265 266 266 266 268 271 280
250 253 253 253 254 255 255 255 256 257 257 257 257 257 258 258 259 259 260 260 260 260 261 260 260 260 260 260 260 260 260 261 262 262 262 263 263 264 265 266 268 271 272
250 251 252 253 253 254 255 255 256 256 256 257 257 257 258 259 259 260 260 260 260 260 260 260 260 260 259 259 259 259 260 261 261 261 261 262 262 262 263 265 266 267 269
252 252 253 253 253 254 254 255 255 256 256 257 257 257 258 259 259 260 261 261 261 261 261 261 261 260 260 260 260 260 260 261 260 260 261 261 260 261 262 263 264 266 270
Wind_Speed
5 5 6 5 5 5 5 5 5 4 5 4 5 5 5 5 5 5 5 5 5 5 5 6 9 8 8 7 7 8 9 9 12 14 10 9 11 11 10 8 10 11 11
5 4 5 5 5 5 5 5 5 5 5 4 5 5 5 5 5 5 5 5 5 5 5 6 6 6 8 8 7 11 11 10 10 18 13 11 12 10 12 13 11 9 12
5 5 6 7 6 6 6 6 5 5 5 5 5 5 5 5 5 5 4 5 5 5 5 5 5 6 7 6 6 8 9 8 9 11 14 10 10 8 11 11 12 13 10
5 6 6 6 6 6 6 6 6 6 6 6 5 5 5 5 3 4 4 5 5 5 5 4 5 5 6 8 7 9 8 9 9 10 12 11 9 6 4 7 8 6 12
6 7 7 7 7 7 7 7 7 6 6 5 6 6 5 5 3 4 4 5 6 5 5 6 5 5 7 7 6 8 9 7 7 8 12 14 12 10 4 4 7 11 9
8 9 9 10 8 7 7 7 7 6 6 6 5 5 6 4 5 7 7 6 7 6 5 5 6 6 6 9 8 10 8 8 9 8 8 10 13 11 10 9 11 10 10
9 9 10 9 9 9 9 8 9 10 11 10 8 6 6 6 9 7 10 6 8 8 7 6 5 4 7 9 11 13 11 10 12 10 13 11 14 10 12 13 11 11 13
11 11 11 11 11 11 10 9 9 8 9 10 10 10 8 6 13 12 12 8 7 7 7 6 6 6 5 7 10 12 10 9 11 8 10 10 13 12 14 14 15 15 12
11 10 10 10 10 10 10 10 9 8 7 8 9 10 9 9 15 15 12 6 7 7 7 7 6 6 10 12 9 12 13 11 10 14 20 22 23 23 20 11 9 9 11
12 11 10 9 8 9 9 11 10 8 8 8 10 7 8 7 12 17 14 5 7 6 8 7 8 8 13 15 9 10 14 11 11 13 13 15 14 11 15 9 8 9 10
10 10 11 11 11 8 9 10 10 10 8 7 9 9 8 7 9 17 19 9 7 9 8 9 5 16 20 20 21 12 14 15 16 13 12 12 8 5 5 5 4 6 9
11 10 10 10 9 9 10 10 10 9 9 8 8 6 7 9 16 14 19 22 18 10 10 9 11 23 26 25 21 23 25 20 9 8 9 11 10 8 5 4 6 6 6
11 10 9 9 9 10 10 11 8 9 8 9 8 8 8 8 9 20 19 20 21 15 10 18 28 27 29 21 23 25 19 8 9 8 8 10 10 9 6 5 5 6 5
9 9 9 9 10 9 8 7 7 7 8 8 9 9 9 9 9 9 9 11 16 13 18 14 18 24 25 23 16 13 8 7 8 9 8 7 7 8 6 3 4 2 2
9 9 9 8 9 9 8 7 8 8 10 10 9 9 11 11 9 20 20 13 14 17 22 14 12 10 10 9 10 9 8 8 7 7 7 8 7 8 10 5 5 3 4
10 8 8 8 8 8 8 8 13 17 19 21 22 17 10 21 27 28 29 29 30 30 15 14 13 11 12 11 11 9 7 7 8 8 8 7 9 9 10 7 4 5 6
10 10 7 8 7 8 8 8 10 10 19 19 20 22 24 25 28 29 30 30 30 26 13 12 13 12 12 12 10 10 11 8 9 10 10 10 9 9 9 9 7 6 7
8 10 7 7 7 8 8 9 9 10 11 10 14 20 23 26 27 28 29 27 13 11 10 12 13 13 13 12 11 12 11 10 9 10 11 11 11 10 10 10 9 8 8
8 7 7 7 7 8 8 8 8 9 10 10 10 14 14 23 26 27 26 10 11 11 11 12 12 13 13 13 13 12 13 12 11 11 11 11 12 12 12 11 10 12 11
7 10 9 7 8 9 8 9 10 10 11 11 11 12 11 13 12 12 10 11 11 12 12 13 13 13 13 14 13 13 13 13 12 11 11 11 12 12 13 14 12 10 10
6 7 10 8 7 8 8 9 9 10 10 11 12 12 26 16 14 13 13 12 12 13 14 13 13 13 13 13 13 13 15 14 13 12 12 12 10 11 12 14 12 11 10
6 7 7 8 8 9 9 9 10 11 12 12 13 14 28 13 13 14 14 14 13 14 13 15 15 14 13 13 13 14 15 15 14 13 13 12 12 13 12 13 12 12 11
5 8 9 8 8 11 10 10 10 11 12 12 13 13 13 13 14 15 15 15 14 14 14 14 15 15 14 15 14 14 15 15 14 13 13 13 12 10 11 12 14 13 13
5 8 9 9 9 9 10 11 11 14 13 13 13 14 14 14 15 17 17 16 15 15 15 15 15 20 18 17 15 15 15 15 13 14 18 15 14 14 12 13 14 14 15
5 8 8 9 9 9 11 11 12 12 12 13 13 14 15 16 17 17 17 16 16 16 18 17 15 20 24 26 24 25 24 26 22 21 15 18 19 20 16 13 14 13 15
8 8 9 9 9 9 10 11 12 12 13 13 14 15 16 17 17 18 17 18 17 17 20 16 19 25 27 23 26 28 28 28 25 26 19 17 17 16 15 17 20 14 17
Wind_Direction
61 53 66 50 38 46 61 52 33 13 13 2 350 337 325 326 338 345 341 327 308 284 266 258 264 261 262 257 247 242 251 257 272 283 276 269 264 257 256 249 252 255 254
44 51 52 47 39 45 41 30 21 11 1 354 345 338 344 346 356 346 345 11 359 350 347 342 348 345 334 318 283 266 255 249 255 275 279 279 263 260 255 257 251 242 256
37 51 47 33 24 21 16 5 5 2 348 352 354 343 341 341 333 44 23 358 341 321 316 326 319 320 318 324 330 313 317 319 292 271 275 276 275 265 261 250 253 255 239
46 53 52 31 16 13 2 359 356 355 345 346 343 329 330 332 6 37 7 333 309 313 306 309 320 327 334 325 313 312 309 312 301 294 289 293 288 295 280 269 257 246 256
37 44 34 22 19 12 3 355 349 348 335 338 331 327 331 327 28 12 349 314 307 299 300 299 299 319 294 292 312 313 317 315 308 297 287 292 293 297 289 272 261 275 259
41 39 25 16 6 6 0 349 346 344 338 337 335 332 332 326 350 352 335 307 300 297 291 305 316 312 312 307 306 310 301 307 295 290 288 289 292 295 285 288 283 282 281
44 40 26 8 3 0 354 3 3 359 351 341 337 341 338 330 327 330 315 306 302 292 295 299 295 280 296 312 306 306 295 283 277 282 288 291 298 311 314 308 289 281 274
40 31 18 6 360 352 350 358 359 5 1 339 331 334 330 322 323 334 318 300 289 288 285 286 283 297 304 303 312 307 297 297 293 284 280 287 286 294 286 283 287 284 279
24 19 12 3 355 350 350 347 350 340 4 327 315 323 319 319 317 320 318 299 298 292 287 281 290 300 297 303 306 300 301 295 280 286 290 293 287 283 277 288 282 280 283
8 360 359 356 358 344 345 343 334 337 344 323 313 307 295 306 323 324 330 318 309 314 307 298 300 294 299 306 304 301 295 297 307 303 300 300 300 287 280 266 279 281 281
358 356 359 356 347 348 348 339 333 335 327 335 324 324 331 337 344 341 335 328 330 317 315 312 300 308 308 305 301 289 281 293 296 298 302 302 299 278 265 242 244 273 281
357 355 355 353 349 352 343 342 337 332 335 327 335 337 339 341 338 333 339 326 325 323 311 312 308 306 306 304 302 289 289 294 281 284 292 294 296 300 277 265 265 257 259
357 352 347 351 359 343 349 342 337 338 337 333 338 334 326 321 332 331 330 322 322 311 309 303 308 306 303 303 297 297 295 280 275 264 273 287 291 296 286 274 259 247 257
347 341 340 348 340 346 338 329 331 330 328 326 323 323 324 325 323 317 312 308 313 312 307 298 295 298 294 288 294 293 281 261 252 259 267 269 276 284 275 265 277 276 258
338 334 341 344 338 331 330 329 317 318 314 313 313 314 316 308 303 306 312 310 309 304 307 301 301 297 291 286 281 275 277 274 263 263 265 270 274 283 290 268 264 263 246
331 335 338 334 330 329 324 320 317 317 315 311 308 305 298 300 309 308 307 303 305 306 298 297 296 295 288 286 280 278 284 291 289 280 270 264 276 277 283 274 231 249 262
329 326 324 323 320 323 319 313 312 313 312 315 315 313 312 308 307 309 309 307 306 309 294 292 290 289 286 283 285 286 282 278 289 286 284 276 269 269 271 268 256 238 246
311 309 308 313 317 308 308 308 305 307 311 309 310 310 308 312 313 311 312 314 312 298 286 284 284 287 285 286 285 285 284 282 279 281 279 283 277 267 262 259 252 234 239
316 313 313 303 299 300 298 300 298 302 304 304 307 305 306 306 309 306 305 298 287 284 281 280 282 282 282 285 284 282 280 279 275 273 273 274 274 271 263 257 249 233 220
304 300 307 305 303 307 303 306 308 307 308 306 306 304 309 306 299 299 295 288 283 280 280 278 278 278 280 281 281 281 279 277 276 272 268 269 274 272 267 263 255 236 224
292 302 296 294 292 291 289 290 292 292 291 291 289 289 294 300 298 293 292 288 283 281 280 279 278 276 275 276 276 276 276 276 274 272 269 267 283 285 282 291 266 235 228
270 277 287 286 288 288 284 285 286 283 282 286 289 289 295 292 285 282 280 278 276 275 275 276 277 277 277 275 274 273 272 272 272 271 270 268 271 269 264 267 283 270 222
282 290 285 282 280 284 285 282 281 282 285 287 289 290 288 283 280 279 279 279 277 274 272 270 271 272 271 272 269 268 269 269 270 270 269 268 269 274 279 278 276 273 268
264 281 284 283 284 285 284 286 286 286 286 287 288 288 286 285 284 283 282 281 278 275 271 269 267 267 270 266 266 265 264 264 264 262 265 264 264 264 261 267 275 262 285
268 275 275 278 282 286 289 285 287 288 288 289 290 289 289 288 287 286 286 284 280 277 273 270 266 265 264 265 262 262 261 263 261 261 264 263 263 264 263 265 274 278 274
272 275 279 280 281 283 284 289 291 293 293 294 293 291 290 290 290 291 289 287 284 280 278 273 268 265 264 263 262 261 261 261 257 255 253 253 255 256 253 251 255 253 253